Year,Month,Day,Hour,Minute,Value (Times are PST for temperature in C)
2015,06,13,00,00,13.00
2015,06,13,00,01,13.00
2015,06,13,00,02,13.00
2015,06,13,00,03,13.00
2015,06,13,00,04,13.00
2015,06,13,00,05,13.00
2015,06,13,00,06,12.90
2015,06,13,00,07,12.90
2015,06,13,00,08,12.90
2015,06,13,00,09,12.90
2015,06,13,00,10,12.80
2015,06,13,00,11,12.80
2015,06,13,00,12,12.80
2015,06,13,00,13,12.80
2015,06,13,00,14,12.70
2015,06,13,00,15,12.70
2015,06,13,00,16,12.70
2015,06,13,00,17,12.70
2015,06,13,00,18,12.70
2015,06,13,00,19,12.70
2015,06,13,00,20,12.60
2015,06,13,00,21,12.60
2015,06,13,00,22,12.60
2015,06,13,00,23,12.50
2015,06,13,00,24,12.50
2015,06,13,00,25,12.40
2015,06,13,00,26,12.40
2015,06,13,00,27,12.40
2015,06,13,00,28,12.40
2015,06,13,00,29,12.30
2015,06,13,00,30,12.30
2015,06,13,00,31,12.20
2015,06,13,00,32,12.20
2015,06,13,00,33,12.20
2015,06,13,00,34,12.10
2015,06,13,00,35,12.10
2015,06,13,00,36,12.10
2015,06,13,00,37,12.00
2015,06,13,00,38,12.00
2015,06,13,00,39,11.90
2015,06,13,00,40,11.90
2015,06,13,00,41,11.90
2015,06,13,00,42,11.80
2015,06,13,00,43,11.80
2015,06,13,00,44,11.80
2015,06,13,00,45,11.80
2015,06,13,00,46,11.80
2015,06,13,00,47,11.80
2015,06,13,00,48,11.80
2015,06,13,00,49,11.90
2015,06,13,00,50,11.90
2015,06,13,00,51,12.00
2015,06,13,00,52,12.00
2015,06,13,00,53,12.10
2015,06,13,00,54,12.10
2015,06,13,00,55,12.10
2015,06,13,00,56,12.10
2015,06,13,00,57,12.10
2015,06,13,00,58,12.10
2015,06,13,00,59,12.10
2015,06,13,01,00,12.20
2015,06,13,01,01,12.20
2015,06,13,01,02,12.20
2015,06,13,01,03,12.20
2015,06,13,01,04,12.20
2015,06,13,01,05,12.30
2015,06,13,01,06,12.30
2015,06,13,01,07,12.40
2015,06,13,01,08,12.40
2015,06,13,01,09,12.50
2015,06,13,01,10,12.60
2015,06,13,01,11,12.70
2015,06,13,01,12,12.80
2015,06,13,01,13,12.90
2015,06,13,01,14,13.00
2015,06,13,01,15,13.10
2015,06,13,01,16,13.20
2015,06,13,01,17,13.20
2015,06,13,01,18,13.30
2015,06,13,01,19,13.30
2015,06,13,01,20,13.40
2015,06,13,01,21,13.40
2015,06,13,01,22,13.40
2015,06,13,01,23,13.50
2015,06,13,01,24,13.50
2015,06,13,01,25,13.50
2015,06,13,01,26,13.50
2015,06,13,01,27,13.50
2015,06,13,01,28,13.50
2015,06,13,01,29,13.50
2015,06,13,01,30,13.50
2015,06,13,01,31,13.50
2015,06,13,01,32,13.50
2015,06,13,01,33,13.50
2015,06,13,01,34,13.50
2015,06,13,01,35,13.50
2015,06,13,01,36,13.50
2015,06,13,01,37,13.40
2015,06,13,01,38,13.40
2015,06,13,01,39,13.40
2015,06,13,01,40,13.40
2015,06,13,01,41,13.40
2015,06,13,01,42,13.30
2015,06,13,01,43,13.30
2015,06,13,01,44,13.30
2015,06,13,01,45,13.30
2015,06,13,01,46,13.20
2015,06,13,01,47,13.20
2015,06,13,01,48,13.20
2015,06,13,01,49,13.20
2015,06,13,01,50,13.20
2015,06,13,01,51,13.20
2015,06,13,01,52,13.20
2015,06,13,01,53,13.20
2015,06,13,01,54,13.10
2015,06,13,01,55,13.10
2015,06,13,01,56,13.10
2015,06,13,01,57,13.10
2015,06,13,01,58,13.00
2015,06,13,01,59,13.00
2015,06,13,02,00,13.00
2015,06,13,02,01,12.90
2015,06,13,02,02,12.90
2015,06,13,02,03,12.90
2015,06,13,02,04,12.80
2015,06,13,02,05,12.80
2015,06,13,02,06,12.80
2015,06,13,02,07,12.80
2015,06,13,02,08,12.80
2015,06,13,02,09,12.70
2015,06,13,02,10,12.70
2015,06,13,02,11,12.70
2015,06,13,02,12,12.70
2015,06,13,02,13,12.70
2015,06,13,02,14,12.70
2015,06,13,02,15,12.70
2015,06,13,02,16,12.70
2015,06,13,02,17,12.70
2015,06,13,02,18,12.70
2015,06,13,02,19,12.70
2015,06,13,02,20,12.70
2015,06,13,02,21,12.70
2015,06,13,02,22,12.70
2015,06,13,02,23,12.70
2015,06,13,02,24,12.70
2015,06,13,02,25,12.70
2015,06,13,02,26,12.70
2015,06,13,02,27,12.70
2015,06,13,02,28,12.70
2015,06,13,02,29,12.70
2015,06,13,02,30,12.70
2015,06,13,02,31,12.70
2015,06,13,02,32,12.70
2015,06,13,02,33,12.70
2015,06,13,02,34,12.60
2015,06,13,02,35,12.60
2015,06,13,02,36,12.60
2015,06,13,02,37,12.60
2015,06,13,02,38,12.60
2015,06,13,02,39,12.60
2015,06,13,02,40,12.60
2015,06,13,02,41,12.60
2015,06,13,02,42,12.60
2015,06,13,02,43,12.60
2015,06,13,02,44,12.60
2015,06,13,02,45,12.60
2015,06,13,02,46,12.60
2015,06,13,02,47,12.60
2015,06,13,02,48,12.60
2015,06,13,02,49,12.60
2015,06,13,02,50,12.50
2015,06,13,02,51,12.50
2015,06,13,02,52,12.40
2015,06,13,02,53,12.40
2015,06,13,02,54,12.40
2015,06,13,02,55,12.40
2015,06,13,02,56,12.40
2015,06,13,02,57,12.50
2015,06,13,02,58,12.50
2015,06,13,02,59,12.50
2015,06,13,03,00,12.50
2015,06,13,03,01,12.50
2015,06,13,03,02,12.50
2015,06,13,03,03,12.60
2015,06,13,03,04,12.60
2015,06,13,03,05,12.60
2015,06,13,03,06,12.60
2015,06,13,03,07,12.60
2015,06,13,03,08,12.60
2015,06,13,03,09,12.60
2015,06,13,03,10,12.60
2015,06,13,03,11,12.60
2015,06,13,03,12,12.60
2015,06,13,03,13,12.60
2015,06,13,03,14,12.60
2015,06,13,03,15,12.60
2015,06,13,03,16,12.60
2015,06,13,03,17,12.60
2015,06,13,03,18,12.60
2015,06,13,03,19,12.60
2015,06,13,03,20,12.50
2015,06,13,03,21,12.50
2015,06,13,03,22,12.50
2015,06,13,03,23,12.50
2015,06,13,03,24,12.50
2015,06,13,03,25,12.40
2015,06,13,03,26,12.40
2015,06,13,03,27,12.40
2015,06,13,03,28,12.30
2015,06,13,03,29,12.20
2015,06,13,03,30,12.20
2015,06,13,03,31,12.10
2015,06,13,03,32,12.10
2015,06,13,03,33,12.10
2015,06,13,03,34,12.00
2015,06,13,03,35,12.00
2015,06,13,03,36,12.00
2015,06,13,03,37,12.00
2015,06,13,03,38,11.90
2015,06,13,03,39,11.90
2015,06,13,03,40,11.90
2015,06,13,03,41,11.90
2015,06,13,03,42,11.80
2015,06,13,03,43,11.80
2015,06,13,03,44,11.80
2015,06,13,03,45,11.70
2015,06,13,03,46,11.70
2015,06,13,03,47,11.70
2015,06,13,03,48,11.70
2015,06,13,03,49,11.70
2015,06,13,03,50,11.60
2015,06,13,03,51,11.60
2015,06,13,03,52,11.60
2015,06,13,03,53,11.60
2015,06,13,03,54,11.60
2015,06,13,03,55,11.60
2015,06,13,03,56,11.60
2015,06,13,03,57,11.60
2015,06,13,03,58,11.60
2015,06,13,03,59,11.60
2015,06,13,04,00,11.60
2015,06,13,04,01,11.60
2015,06,13,04,02,11.60
2015,06,13,04,03,11.60
2015,06,13,04,04,11.60
2015,06,13,04,05,11.70
2015,06,13,04,06,11.70
2015,06,13,04,07,11.70
2015,06,13,04,08,11.70
2015,06,13,04,09,11.70
2015,06,13,04,10,11.70
2015,06,13,04,11,11.70
2015,06,13,04,12,11.70
2015,06,13,04,13,11.60
2015,06,13,04,14,11.60
2015,06,13,04,15,11.60
2015,06,13,04,16,11.60
2015,06,13,04,17,11.50
2015,06,13,04,18,11.50
2015,06,13,04,19,11.50
2015,06,13,04,20,11.50
2015,06,13,04,21,11.40
2015,06,13,04,22,11.40
2015,06,13,04,23,11.40
2015,06,13,04,24,11.40
2015,06,13,04,25,11.40
2015,06,13,04,26,11.50
2015,06,13,04,27,11.50
2015,06,13,04,28,11.50
2015,06,13,04,29,11.60
2015,06,13,04,30,11.60
2015,06,13,04,31,11.60
2015,06,13,04,32,11.50
2015,06,13,04,33,11.50
2015,06,13,04,34,11.50
2015,06,13,04,35,11.40
2015,06,13,04,36,11.40
2015,06,13,04,37,11.40
2015,06,13,04,38,11.40
2015,06,13,04,39,11.40
2015,06,13,04,40,11.40
2015,06,13,04,41,11.40
2015,06,13,04,42,11.40
2015,06,13,04,43,11.40
2015,06,13,04,44,11.40
2015,06,13,04,45,11.40
2015,06,13,04,46,11.40
2015,06,13,04,47,11.40
2015,06,13,04,48,11.40
2015,06,13,04,49,11.30
2015,06,13,04,50,11.30
2015,06,13,04,51,11.30
2015,06,13,04,52,11.30
2015,06,13,04,53,11.30
2015,06,13,04,54,11.30
2015,06,13,04,55,11.30
2015,06,13,04,56,11.30
2015,06,13,04,57,11.30
2015,06,13,04,58,11.30
2015,06,13,04,59,11.30
2015,06,13,05,00,11.30
2015,06,13,05,01,11.30
2015,06,13,05,02,11.30
2015,06,13,05,03,11.30
2015,06,13,05,04,11.30
2015,06,13,05,05,11.30
2015,06,13,05,06,11.30
2015,06,13,05,07,11.30
2015,06,13,05,08,11.30
2015,06,13,05,09,11.30
2015,06,13,05,10,11.30
2015,06,13,05,11,11.30
2015,06,13,05,12,11.30
2015,06,13,05,13,11.30
2015,06,13,05,14,11.30
2015,06,13,05,15,11.30
2015,06,13,05,16,11.30
2015,06,13,05,17,11.30
2015,06,13,05,18,11.30
2015,06,13,05,19,11.20
2015,06,13,05,20,11.20
2015,06,13,05,21,11.20
2015,06,13,05,22,11.20
2015,06,13,05,23,11.10
2015,06,13,05,24,11.10
2015,06,13,05,25,11.10
2015,06,13,05,26,11.10
2015,06,13,05,27,11.10
2015,06,13,05,28,11.10
2015,06,13,05,29,11.10
2015,06,13,05,30,11.10
2015,06,13,05,31,11.10
2015,06,13,05,32,11.10
2015,06,13,05,33,11.00
2015,06,13,05,34,11.00
2015,06,13,05,35,11.00
2015,06,13,05,36,11.00
2015,06,13,05,37,11.00
2015,06,13,05,38,11.00
2015,06,13,05,39,11.00
2015,06,13,05,40,11.00
2015,06,13,05,41,11.00
2015,06,13,05,42,11.00
2015,06,13,05,43,11.00
2015,06,13,05,44,10.90
2015,06,13,05,45,10.90
2015,06,13,05,46,10.90
2015,06,13,05,47,10.90
2015,06,13,05,48,10.90
2015,06,13,05,49,10.90
2015,06,13,05,50,10.80
2015,06,13,05,51,10.80
2015,06,13,05,52,10.80
2015,06,13,05,53,10.90
2015,06,13,05,54,10.90
2015,06,13,05,55,10.90
2015,06,13,05,56,10.90
2015,06,13,05,57,11.00
2015,06,13,05,58,11.00
2015,06,13,05,59,11.00
2015,06,13,06,00,11.00
2015,06,13,06,01,11.00
2015,06,13,06,02,11.00
2015,06,13,06,03,11.10
2015,06,13,06,04,11.10
2015,06,13,06,05,11.10
2015,06,13,06,06,11.10
2015,06,13,06,07,11.10
2015,06,13,06,08,11.10
2015,06,13,06,09,11.20
2015,06,13,06,10,11.20
2015,06,13,06,11,11.20
2015,06,13,06,12,11.20
2015,06,13,06,13,11.30
2015,06,13,06,14,11.30
2015,06,13,06,15,11.30
2015,06,13,06,16,11.30
2015,06,13,06,17,11.40
2015,06,13,06,18,11.40
2015,06,13,06,19,11.50
2015,06,13,06,20,11.50
2015,06,13,06,21,11.60
2015,06,13,06,22,11.60
2015,06,13,06,23,11.70
2015,06,13,06,24,11.80
2015,06,13,06,25,11.80
2015,06,13,06,26,11.90
2015,06,13,06,27,11.90
2015,06,13,06,28,12.00
2015,06,13,06,29,12.10
2015,06,13,06,30,12.10
2015,06,13,06,31,12.20
2015,06,13,06,32,12.20
2015,06,13,06,33,12.20
2015,06,13,06,34,12.20
2015,06,13,06,35,12.30
2015,06,13,06,36,12.30
2015,06,13,06,37,12.30
2015,06,13,06,38,12.30
2015,06,13,06,39,12.40
2015,06,13,06,40,12.40
2015,06,13,06,41,12.40
2015,06,13,06,42,12.50
2015,06,13,06,43,12.50
2015,06,13,06,44,12.50
2015,06,13,06,45,12.60
2015,06,13,06,46,12.60
2015,06,13,06,47,12.60
2015,06,13,06,48,12.70
2015,06,13,06,49,12.70
2015,06,13,06,50,12.70
2015,06,13,06,51,12.70
2015,06,13,06,52,12.70
2015,06,13,06,53,12.70
2015,06,13,06,54,12.70
2015,06,13,06,55,12.70
2015,06,13,06,56,12.70
2015,06,13,06,57,12.70
2015,06,13,06,58,12.70
2015,06,13,06,59,12.70
2015,06,13,07,00,12.70
2015,06,13,07,01,12.70
2015,06,13,07,02,12.80
2015,06,13,07,03,12.80
2015,06,13,07,04,12.80
2015,06,13,07,05,12.80
2015,06,13,07,06,12.80
2015,06,13,07,07,12.80
2015,06,13,07,08,12.80
2015,06,13,07,09,12.80
2015,06,13,07,10,12.80
2015,06,13,07,11,12.80
2015,06,13,07,12,12.90
2015,06,13,07,13,12.90
2015,06,13,07,14,13.00
2015,06,13,07,15,13.10
2015,06,13,07,16,13.10
2015,06,13,07,17,13.20
2015,06,13,07,18,13.20
2015,06,13,07,19,13.30
2015,06,13,07,20,13.40
2015,06,13,07,21,13.50
2015,06,13,07,22,13.60
2015,06,13,07,23,13.60
2015,06,13,07,24,13.60
2015,06,13,07,25,13.70
2015,06,13,07,26,13.70
2015,06,13,07,27,13.70
2015,06,13,07,28,13.80
2015,06,13,07,29,13.80
2015,06,13,07,30,13.90
2015,06,13,07,31,13.90
2015,06,13,07,32,14.00
2015,06,13,07,33,14.00
2015,06,13,07,34,14.00
2015,06,13,07,35,14.10
2015,06,13,07,36,14.10
2015,06,13,07,37,14.10
2015,06,13,07,38,14.20
2015,06,13,07,39,14.20
2015,06,13,07,40,14.20
2015,06,13,07,41,14.20
2015,06,13,07,42,14.20
2015,06,13,07,43,14.20
2015,06,13,07,44,14.20
2015,06,13,07,45,14.20
2015,06,13,07,46,14.20
2015,06,13,07,47,14.10
2015,06,13,07,48,14.10
2015,06,13,07,49,14.10
2015,06,13,07,50,14.20
2015,06,13,07,51,14.20
2015,06,13,07,52,14.20
2015,06,13,07,53,14.30
2015,06,13,07,54,14.30
2015,06,13,07,55,14.40
2015,06,13,07,56,14.40
2015,06,13,07,57,14.50
2015,06,13,07,58,14.50
2015,06,13,07,59,14.60
2015,06,13,08,00,14.60
2015,06,13,08,01,14.60
2015,06,13,08,02,14.60
2015,06,13,08,03,14.60
2015,06,13,08,04,14.60
2015,06,13,08,05,14.70
2015,06,13,08,06,14.70
2015,06,13,08,07,14.70
2015,06,13,08,08,14.80
2015,06,13,08,09,14.80
2015,06,13,08,10,14.80
2015,06,13,08,11,14.80
2015,06,13,08,12,14.80
2015,06,13,08,13,14.80
2015,06,13,08,14,14.80
2015,06,13,08,15,14.80
2015,06,13,08,16,14.80
2015,06,13,08,17,14.80
2015,06,13,08,18,14.90
2015,06,13,08,19,15.00
2015,06,13,08,20,15.00
2015,06,13,08,21,15.00
2015,06,13,08,22,15.00
2015,06,13,08,23,15.00
2015,06,13,08,24,15.00
2015,06,13,08,25,15.10
2015,06,13,08,26,15.10
2015,06,13,08,27,15.00
2015,06,13,08,28,15.10
2015,06,13,08,29,15.10
2015,06,13,08,30,15.20
2015,06,13,08,31,15.30
2015,06,13,08,32,15.30
2015,06,13,08,33,15.30
2015,06,13,08,34,15.30
2015,06,13,08,35,15.30
2015,06,13,08,36,15.30
2015,06,13,08,37,15.30
2015,06,13,08,38,15.20
2015,06,13,08,39,15.20
2015,06,13,08,40,15.20
2015,06,13,08,41,15.20
2015,06,13,08,42,15.20
2015,06,13,08,43,15.30
2015,06,13,08,44,15.30
2015,06,13,08,45,15.30
2015,06,13,08,46,15.20
2015,06,13,08,47,15.30
2015,06,13,08,48,15.30
2015,06,13,08,49,15.30
2015,06,13,08,50,15.40
2015,06,13,08,51,15.40
2015,06,13,08,52,15.50
2015,06,13,08,53,15.50
2015,06,13,08,54,15.60
2015,06,13,08,55,15.60
2015,06,13,08,56,15.70
2015,06,13,08,57,15.70
2015,06,13,08,58,15.80
2015,06,13,08,59,15.90
2015,06,13,09,00,15.90
2015,06,13,09,01,16.00
2015,06,13,09,02,16.00
2015,06,13,09,03,16.10
2015,06,13,09,04,16.00
2015,06,13,09,05,15.90
2015,06,13,09,06,15.90
2015,06,13,09,07,15.90
2015,06,13,09,08,15.90
2015,06,13,09,09,15.90
2015,06,13,09,10,15.80
2015,06,13,09,11,15.80
2015,06,13,09,12,15.80
2015,06,13,09,13,15.90
2015,06,13,09,14,15.80
2015,06,13,09,15,15.70
2015,06,13,09,16,15.60
2015,06,13,09,17,15.50
2015,06,13,09,18,15.50
2015,06,13,09,19,15.40
2015,06,13,09,20,15.50
2015,06,13,09,21,15.60
2015,06,13,09,22,15.70
2015,06,13,09,23,15.70
2015,06,13,09,24,15.70
2015,06,13,09,25,15.80
2015,06,13,09,26,15.90
2015,06,13,09,27,15.90
2015,06,13,09,28,15.80
2015,06,13,09,29,15.80
2015,06,13,09,30,15.80
2015,06,13,09,31,15.80
2015,06,13,09,32,15.80
2015,06,13,09,33,15.90
2015,06,13,09,34,15.90
2015,06,13,09,35,15.90
2015,06,13,09,36,16.00
2015,06,13,09,37,16.00
2015,06,13,09,38,16.00
2015,06,13,09,39,16.10
2015,06,13,09,40,16.10
2015,06,13,09,41,16.20
2015,06,13,09,42,16.20
2015,06,13,09,43,16.20
2015,06,13,09,44,16.20
2015,06,13,09,45,16.20
2015,06,13,09,46,16.20
2015,06,13,09,47,16.20
2015,06,13,09,48,16.30
2015,06,13,09,49,16.30
2015,06,13,09,50,16.30
2015,06,13,09,51,16.30
2015,06,13,09,52,16.30
2015,06,13,09,53,16.30
2015,06,13,09,54,16.40
2015,06,13,09,55,16.40
2015,06,13,09,56,16.30
2015,06,13,09,57,16.30
2015,06,13,09,58,16.40
2015,06,13,09,59,16.40
2015,06,13,10,00,16.40
2015,06,13,10,01,16.30
2015,06,13,10,02,16.30
2015,06,13,10,03,16.40
2015,06,13,10,04,16.50
2015,06,13,10,05,16.50
2015,06,13,10,06,16.40
2015,06,13,10,07,16.30
2015,06,13,10,08,16.20
2015,06,13,10,09,16.30
2015,06,13,10,10,16.40
2015,06,13,10,11,16.50
2015,06,13,10,12,16.60
2015,06,13,10,13,16.70
2015,06,13,10,14,16.70
2015,06,13,10,15,16.80
2015,06,13,10,16,16.80
2015,06,13,10,17,16.80
2015,06,13,10,18,16.90
2015,06,13,10,19,17.00
2015,06,13,10,20,17.10
2015,06,13,10,21,17.10
2015,06,13,10,22,17.10
2015,06,13,10,23,17.00
2015,06,13,10,24,16.90
2015,06,13,10,25,16.80
2015,06,13,10,26,16.70
2015,06,13,10,27,16.60
2015,06,13,10,28,16.60
2015,06,13,10,29,16.60
2015,06,13,10,30,16.60
2015,06,13,10,31,16.60
2015,06,13,10,32,16.70
2015,06,13,10,33,16.70
2015,06,13,10,34,16.80
2015,06,13,10,35,16.90
2015,06,13,10,36,17.00
2015,06,13,10,37,17.10
2015,06,13,10,38,17.20
2015,06,13,10,39,17.10
2015,06,13,10,40,17.10
2015,06,13,10,41,17.10
2015,06,13,10,42,17.20
2015,06,13,10,43,17.20
2015,06,13,10,44,17.30
2015,06,13,10,45,17.40
2015,06,13,10,46,17.50
2015,06,13,10,47,17.50
2015,06,13,10,48,17.50
2015,06,13,10,49,17.60
2015,06,13,10,50,17.60
2015,06,13,10,51,17.70
2015,06,13,10,52,17.80
2015,06,13,10,53,17.80
2015,06,13,10,54,17.80
2015,06,13,10,55,17.80
2015,06,13,10,56,17.90
2015,06,13,10,57,18.00
2015,06,13,10,58,18.10
2015,06,13,10,59,18.10
2015,06,13,11,00,18.10
2015,06,13,11,01,18.20
2015,06,13,11,02,18.20
2015,06,13,11,03,18.20
2015,06,13,11,04,18.20
2015,06,13,11,05,18.20
2015,06,13,11,06,18.10
2015,06,13,11,07,18.10
2015,06,13,11,08,18.10
2015,06,13,11,09,18.10
2015,06,13,11,10,18.00
2015,06,13,11,11,18.00
2015,06,13,11,12,17.90
2015,06,13,11,13,17.90
2015,06,13,11,14,17.90
2015,06,13,11,15,17.90
2015,06,13,11,16,18.00
2015,06,13,11,17,18.10
2015,06,13,11,18,18.20
2015,06,13,11,19,18.20
2015,06,13,11,20,18.10
2015,06,13,11,21,18.10
2015,06,13,11,22,18.10
2015,06,13,11,23,18.10
2015,06,13,11,24,18.10
2015,06,13,11,25,18.00
2015,06,13,11,26,17.80
2015,06,13,11,27,17.70
2015,06,13,11,28,17.60
2015,06,13,11,29,17.60
2015,06,13,11,30,17.60
2015,06,13,11,31,17.70
2015,06,13,11,32,17.70
2015,06,13,11,33,17.70
2015,06,13,11,34,17.80
2015,06,13,11,35,17.80
2015,06,13,11,36,17.80
2015,06,13,11,37,17.90
2015,06,13,11,38,17.90
2015,06,13,11,39,18.00
2015,06,13,11,40,18.10
2015,06,13,11,41,18.10
2015,06,13,11,42,18.20
2015,06,13,11,43,18.30
2015,06,13,11,44,18.40
2015,06,13,11,45,18.40
2015,06,13,11,46,18.40
2015,06,13,11,47,18.40
2015,06,13,11,48,18.50
2015,06,13,11,49,18.50
2015,06,13,11,50,18.60
2015,06,13,11,51,18.60
2015,06,13,11,52,18.60
2015,06,13,11,53,18.40
2015,06,13,11,54,18.30
2015,06,13,11,55,18.10
2015,06,13,11,56,18.00
2015,06,13,11,57,18.00
2015,06,13,11,58,18.00
2015,06,13,11,59,18.00
2015,06,13,12,00,18.00
2015,06,13,12,01,18.00
2015,06,13,12,02,17.90
2015,06,13,12,03,17.90
2015,06,13,12,04,17.90
2015,06,13,12,05,18.00
2015,06,13,12,06,18.10
2015,06,13,12,07,18.20
2015,06,13,12,08,18.20
2015,06,13,12,09,18.30
2015,06,13,12,10,18.40
2015,06,13,12,11,18.50
2015,06,13,12,12,18.60
2015,06,13,12,13,18.40
2015,06,13,12,14,18.30
2015,06,13,12,15,18.20
2015,06,13,12,16,18.10
2015,06,13,12,17,18.10
2015,06,13,12,18,18.10
2015,06,13,12,19,18.30
2015,06,13,12,20,18.50
2015,06,13,12,21,18.70
2015,06,13,12,22,18.90
2015,06,13,12,23,19.00
2015,06,13,12,24,18.90
2015,06,13,12,25,18.70
2015,06,13,12,26,18.50
2015,06,13,12,27,18.40
2015,06,13,12,28,18.30
2015,06,13,12,29,18.50
2015,06,13,12,30,18.60
2015,06,13,12,31,18.70
2015,06,13,12,32,18.80
2015,06,13,12,33,18.80
2015,06,13,12,34,18.90
2015,06,13,12,35,18.90
2015,06,13,12,36,19.00
2015,06,13,12,37,19.00
2015,06,13,12,38,18.90
2015,06,13,12,39,18.80
2015,06,13,12,40,18.80
2015,06,13,12,41,18.80
2015,06,13,12,42,18.80
2015,06,13,12,43,18.70
2015,06,13,12,44,18.70
2015,06,13,12,45,18.70
2015,06,13,12,46,18.70
2015,06,13,12,47,18.80
2015,06,13,12,48,18.90
2015,06,13,12,49,18.90
2015,06,13,12,50,19.00
2015,06,13,12,51,19.10
2015,06,13,12,52,19.10
2015,06,13,12,53,19.00
2015,06,13,12,54,19.00
2015,06,13,12,55,19.00
2015,06,13,12,56,19.10
2015,06,13,12,57,19.10
2015,06,13,12,58,19.20
2015,06,13,12,59,19.20
2015,06,13,13,00,19.30
2015,06,13,13,01,19.40
2015,06,13,13,02,19.40
2015,06,13,13,03,19.50
2015,06,13,13,04,19.40
2015,06,13,13,05,19.40
2015,06,13,13,06,19.30
2015,06,13,13,07,19.40
2015,06,13,13,08,19.20
2015,06,13,13,09,19.10
2015,06,13,13,10,19.10
2015,06,13,13,11,19.20
2015,06,13,13,12,19.20
2015,06,13,13,13,19.20
2015,06,13,13,14,19.20
2015,06,13,13,15,19.20
2015,06,13,13,16,19.20
2015,06,13,13,17,19.40
2015,06,13,13,18,19.50
2015,06,13,13,19,19.50
2015,06,13,13,20,19.50
2015,06,13,13,21,19.50
2015,06,13,13,22,19.50
2015,06,13,13,23,19.40
2015,06,13,13,24,19.40
2015,06,13,13,25,19.30
2015,06,13,13,26,19.20
2015,06,13,13,27,19.20
2015,06,13,13,28,19.20
2015,06,13,13,29,19.30
2015,06,13,13,30,19.40
2015,06,13,13,31,19.30
2015,06,13,13,32,19.40
2015,06,13,13,33,19.30
2015,06,13,13,34,19.30
2015,06,13,13,35,19.30
2015,06,13,13,36,19.30
2015,06,13,13,37,19.30
2015,06,13,13,38,19.40
2015,06,13,13,39,19.50
2015,06,13,13,40,19.50
2015,06,13,13,41,19.70
2015,06,13,13,42,19.80
2015,06,13,13,43,19.90
2015,06,13,13,44,19.80
2015,06,13,13,45,19.70
2015,06,13,13,46,19.60
2015,06,13,13,47,19.40
2015,06,13,13,48,19.40
2015,06,13,13,49,19.40
2015,06,13,13,50,19.30
2015,06,13,13,51,19.30
2015,06,13,13,52,19.10
2015,06,13,13,53,19.10
2015,06,13,13,54,19.20
2015,06,13,13,55,19.30
2015,06,13,13,56,19.30
2015,06,13,13,57,19.30
2015,06,13,13,58,19.20
2015,06,13,13,59,19.20
2015,06,13,14,00,19.30
2015,06,13,14,01,19.40
2015,06,13,14,02,19.60
2015,06,13,14,03,19.80
2015,06,13,14,04,19.80
2015,06,13,14,05,19.70
2015,06,13,14,06,19.70
2015,06,13,14,07,19.70
2015,06,13,14,08,19.60
2015,06,13,14,09,19.50
2015,06,13,14,10,19.50
2015,06,13,14,11,19.40
2015,06,13,14,12,19.40
2015,06,13,14,13,19.40
2015,06,13,14,14,19.40
2015,06,13,14,15,19.50
2015,06,13,14,16,19.50
2015,06,13,14,17,19.50
2015,06,13,14,18,19.40
2015,06,13,14,19,19.50
2015,06,13,14,20,19.60
2015,06,13,14,21,19.70
2015,06,13,14,22,19.80
2015,06,13,14,23,19.70
2015,06,13,14,24,19.70
2015,06,13,14,25,19.70
2015,06,13,14,26,19.70
2015,06,13,14,27,19.60
2015,06,13,14,28,19.60
2015,06,13,14,29,19.50
2015,06,13,14,30,19.50
2015,06,13,14,31,19.40
2015,06,13,14,32,19.40
2015,06,13,14,33,19.60
2015,06,13,14,34,19.70
2015,06,13,14,35,19.70
2015,06,13,14,36,19.70
2015,06,13,14,37,19.70
2015,06,13,14,38,19.70
2015,06,13,14,39,19.60
2015,06,13,14,40,19.60
2015,06,13,14,41,19.60
2015,06,13,14,42,19.60
2015,06,13,14,43,19.60
2015,06,13,14,44,19.60
2015,06,13,14,45,19.70
2015,06,13,14,46,19.70
2015,06,13,14,47,19.80
2015,06,13,14,48,19.80
2015,06,13,14,49,19.70
2015,06,13,14,50,19.70
2015,06,13,14,51,19.70
2015,06,13,14,52,19.60
2015,06,13,14,53,19.50
2015,06,13,14,54,19.50
2015,06,13,14,55,19.60
2015,06,13,14,56,19.70
2015,06,13,14,57,19.80
2015,06,13,14,58,19.90
2015,06,13,14,59,19.90
2015,06,13,15,00,19.80
2015,06,13,15,01,19.70
2015,06,13,15,02,19.60
2015,06,13,15,03,19.50
2015,06,13,15,04,19.50
2015,06,13,15,05,19.60
2015,06,13,15,06,19.70
2015,06,13,15,07,19.70
2015,06,13,15,08,19.70
2015,06,13,15,09,19.70
2015,06,13,15,10,19.60
2015,06,13,15,11,19.60
2015,06,13,15,12,19.70
2015,06,13,15,13,19.80
2015,06,13,15,14,19.70
2015,06,13,15,15,19.70
2015,06,13,15,16,19.60
2015,06,13,15,17,19.60
2015,06,13,15,18,19.60
2015,06,13,15,19,19.70
2015,06,13,15,20,19.80
2015,06,13,15,21,19.90
2015,06,13,15,22,20.00
2015,06,13,15,23,20.10
2015,06,13,15,24,20.20
2015,06,13,15,25,20.30
2015,06,13,15,26,20.30
2015,06,13,15,27,20.30
2015,06,13,15,28,20.20
2015,06,13,15,29,20.30
2015,06,13,15,30,20.30
2015,06,13,15,31,20.20
2015,06,13,15,32,20.10
2015,06,13,15,33,20.10
2015,06,13,15,34,20.00
2015,06,13,15,35,19.90
2015,06,13,15,36,19.80
2015,06,13,15,37,19.80
2015,06,13,15,38,19.80
2015,06,13,15,39,20.00
2015,06,13,15,40,20.10
2015,06,13,15,41,20.30
2015,06,13,15,42,20.40
2015,06,13,15,43,20.50
2015,06,13,15,44,20.50
2015,06,13,15,45,20.40
2015,06,13,15,46,20.30
2015,06,13,15,47,20.20
2015,06,13,15,48,20.10
2015,06,13,15,49,20.00
2015,06,13,15,50,20.00
2015,06,13,15,51,20.00
2015,06,13,15,52,20.00
2015,06,13,15,53,20.00
2015,06,13,15,54,20.10
2015,06,13,15,55,20.10
2015,06,13,15,56,20.10
2015,06,13,15,57,20.20
2015,06,13,15,58,20.20
2015,06,13,15,59,20.20
2015,06,13,16,00,20.10
2015,06,13,16,01,20.10
2015,06,13,16,02,20.10
2015,06,13,16,03,20.10
2015,06,13,16,04,20.10
2015,06,13,16,05,20.20
2015,06,13,16,06,20.40
2015,06,13,16,07,20.50
2015,06,13,16,08,20.50
2015,06,13,16,09,20.40
2015,06,13,16,10,20.40
2015,06,13,16,11,20.50
2015,06,13,16,12,20.50
2015,06,13,16,13,20.50
2015,06,13,16,14,20.40
2015,06,13,16,15,20.30
2015,06,13,16,16,20.20
2015,06,13,16,17,20.10
2015,06,13,16,18,20.10
2015,06,13,16,19,20.10
2015,06,13,16,20,20.00
2015,06,13,16,21,19.90
2015,06,13,16,22,19.90
2015,06,13,16,23,19.90
2015,06,13,16,24,20.00
2015,06,13,16,25,20.00
2015,06,13,16,26,20.00
2015,06,13,16,27,20.10
2015,06,13,16,28,20.20
2015,06,13,16,29,20.10
2015,06,13,16,30,20.20
2015,06,13,16,31,20.20
2015,06,13,16,32,20.10
2015,06,13,16,33,20.10
2015,06,13,16,34,20.00
2015,06,13,16,35,19.90
2015,06,13,16,36,19.80
2015,06,13,16,37,19.80
2015,06,13,16,38,19.90
2015,06,13,16,39,19.90
2015,06,13,16,40,19.90
2015,06,13,16,41,20.00
2015,06,13,16,42,20.00
2015,06,13,16,43,20.00
2015,06,13,16,44,20.10
2015,06,13,16,45,20.10
2015,06,13,16,46,20.10
2015,06,13,16,47,20.20
2015,06,13,16,48,20.30
2015,06,13,16,49,20.30
2015,06,13,16,50,20.30
2015,06,13,16,51,20.30
2015,06,13,16,52,20.30
2015,06,13,16,53,20.20
2015,06,13,16,54,20.20
2015,06,13,16,55,20.30
2015,06,13,16,56,20.30
2015,06,13,16,57,20.30
2015,06,13,16,58,20.30
2015,06,13,16,59,20.30
2015,06,13,17,00,20.30
2015,06,13,17,01,20.30
2015,06,13,17,02,20.30
2015,06,13,17,03,20.30
2015,06,13,17,04,20.30
2015,06,13,17,05,20.20
2015,06,13,17,06,20.10
2015,06,13,17,07,20.10
2015,06,13,17,08,20.10
2015,06,13,17,09,20.10
2015,06,13,17,10,20.10
2015,06,13,17,11,20.00
2015,06,13,17,12,20.10
2015,06,13,17,13,20.10
2015,06,13,17,14,20.20
2015,06,13,17,15,20.30
2015,06,13,17,16,20.30
2015,06,13,17,17,20.30
2015,06,13,17,18,20.30
2015,06,13,17,19,20.30